Simultaneous Nadir Overpasses (SNOs) Predictions

Prediction of SNOs between NPP and TERRA Satellite Orbit:

Table of predicted SNOs for the next 14.0 days since TLE Epoch: 8/4/2013
Index Date (NPP) Time (NPP) Lat,Lon (NPP) SZA (NPP ) Date (TERRA) Time (TERRA) Lat,Lon (TERRA) SZA (TERRA ) Distance(km) Time Diff (sec)
1 08/06/2013 10:39:17 -68.55,-161.51 128.12 08/06/2013 10:40:28 -68.49,-161.25 128.19 11.96 71
2 08/06/2013 11:29:58 68.25, 6.18 51.59 08/06/2013 11:29:57 68.27, 6.13 51.61 3.17 1
3 08/06/2013 12:20:40 -68.17, 173.61 128.49 08/06/2013 12:19:27 -68.17, 173.63 128.49 1.34 73
4 08/09/2013 02:56:13 -68.39, -45.54 127.52 08/09/2013 02:57:00 -68.40, -45.49 127.52 2.48 47
5 08/09/2013 03:46:57 68.26, 121.93 52.36 08/09/2013 03:46:28 68.23, 121.95 52.33 3.30 29
6 08/09/2013 04:37:21 -67.21, -69.46 128.71 08/09/2013 04:36:14 -67.24, -71.55 128.64 90.28 67
7 08/11/2013 18:22:41 69.13, -98.10 54.02 08/11/2013 18:23:50 69.01, -96.49 53.86 65.24 69
8 08/11/2013 19:13:10 -68.35, 70.27 126.78 08/11/2013 19:13:30 -68.36, 70.33 126.78 2.35 20
9 08/11/2013 20:03:53 68.17,-122.18 53.05 08/11/2013 20:02:58 68.18,-122.23 53.06 2.65 55
10 08/14/2013 10:39:26 68.40, 18.66 54.08 08/14/2013 10:40:31 68.40, 18.62 54.07 1.58 65
11 08/14/2013 11:30:08 -68.32,-173.92 126.00 08/14/2013 11:30:01 -68.30,-173.87 126.02 2.86 7
12 08/14/2013 12:20:45 67.81, -5.97 53.49 08/14/2013 12:19:34 67.84, -6.76 53.54 33.32 71
13 08/17/2013 02:56:24 68.37, 134.46
